User: anonymous   Login
Location: Banios
(43.0451°N, 0.2335°E)
Time: 01:44:58
(UTC+00:00)
Language:

Courier 1B - Orbit

View from above orbital plane
View from above orbital plane
View from above satellite
View from above satellite

Ground track
Ground track

The orbit data is extracted from the following two-line orbital elements,

1    58U 60013A   21131.53708651  .00000114  00000-0  40019-4 0  9990
2    58  28.3274 230.1739 0165033 265.5308  92.6367 13.46326909983391
Epoch (UTC): 11 May 2021 12:53:24
Eccentricity: 0.0165033
inclination: 28.3274°
perigee height: 962 km
apogee height: 1209 km
right ascension of ascending node: 230.1739°
argument of perigee: 265.5308°
revolutions per day: 13.46326909
mean anomaly at epoch: 92.6367°
orbit number at epoch: 98339

The dashed part of the orbit path shows where the satellite is in the earth's shadow,  

DLR